www.pogodaiklimat.ru
Время
(UTC), дата
20 19.01
19 19.01
21 19.01
22 19.01
23 19.01
00 20.01
02 20.01
01 20.01
03 20.01
04 20.01
05 20.01
06 20.01
08 20.01
07 20.01
09 20.01
10 20.01
11 20.01
12 20.01
14 20.01
13 20.01
15 20.01
16 20.01
17 20.01
18 20.01
20 20.01
19 20.01
21 20.01
22 20.01
23 20.01
00 21.01
02 21.01
01 21.01
03 21.01
04 21.01
05 21.01
06 21.01
08 21.01
07 21.01
09 21.01
10 21.01
11 21.01
12 21.01
14 21.01
13 21.01
15 21.01
16 21.01
17 21.01
18 21.01
20 21.01
19 21.01
21 21.01
22 21.01
23 21.01
00 22.01
02 22.01
01 22.01
03 22.01
04 22.01
05 22.01
06 22.01
08 22.01
07 22.01
09 22.01
10 22.01
11 22.01
12 22.01
14 22.01
13 22.01
15 22.01
16 22.01
17 22.01
18 22.01
20 22.01
19 22.01
21 22.01
22 22.01
23 22.01
00 23.01
02 23.01
01 23.01
03 23.01
04 23.01
05 23.01
06 23.01
08 23.01
07 23.01
09 23.01
10 23.01
11 23.01
12 23.01
14 23.01
13 23.01
15 23.01
16 23.01
17 23.01
18 23.01
20 23.01
19 23.01
21 23.01
22 23.01
23 23.01
00 24.01
02 24.01
01 24.01
03 24.01
04 24.01
05 24.01
06 24.01
08 24.01
07 24.01
09 24.01
10 24.01
11 24.01
12 24.01
14 24.01
13 24.01
15 24.01
16 24.01
17 24.01
18 24.01
20 24.01
19 24.01
21 24.01
22 24.01
23 24.01
00 25.01
02 25.01
01 25.01
03 25.01
04 25.01
05 25.01
06 25.01
09 25.01
11 25.01
10 25.01
12 25.01
13 25.01
14 25.01
15 25.01
17 25.01
16 25.01
18 25.01
19 25.01
20 25.01
21 25.01
23 25.01
22 25.01
00 26.01
01 26.01
02 26.01
03 26.01
05 26.01
04 26.01
06 26.01
07 26.01
08 26.01
09 26.01
11 26.01
10 26.01
12 26.01
13 26.01
14 26.01
15 26.01
17 26.01
16 26.01
18 26.01
Ветер
(напр.,м/с)
Видим. Явления Облачность Т
(С)
Тd
(С)
f
(%)
Тe
(С)
Тes
(С)
Комфортность P
(гПа)
Po
(гПа)
Тmin
(С)
Tmax
(С)
R
(мм)
R24
(мм)
S
(см)
СВ 3-5
{6}
45 км в посл. час ливневой дождь 9/9 300 м
[Cu Sc]
+3.9 +1.2 83 0 0 по сезону 1043.4 1030.1
С 3-5
{5}
50 км 8/8 1500 м
[Sc]
+3.6 +0.9 82 -0 -0 тепло 1042.7 1029.4
СВ 3-4
{6}
45 км {ливн. осадки} 9/9 1500 м
[Sc]
+4.7 +0.9 76 +1 +1 по сезону 1043.6 1030.4 0.0
С 1-1
{5}
45 км 9/9 1500 м
[Sc]
+3.3 +0.9 84 +2 +2 тепло 1044.2 1030.9
З 1-2
{2}
40 км 9/9 1500 м
[Sc]
+2.3 +0.6 89 +1 +1 тепло 1045.0 1031.6
ЮВ 1-2
{6}
40 км {ливн. осадки} 9/9 1500 м
[Sc]
+1.8 +0.4 90 0 0 по сезону 1045.2 1031.8
З 1-2
{2}
40 км 9/9 1500 м
[Sc]
-0.1 -0.7 96 -2 -2 тепло 1045.9 1032.4
ЮЗ 1-2
{2}
40 км 8/8 1500 м
[Sc]
+0.8 -0.1 94 -1 -1 тепло 1045.4 1032.0
ЮЗ 1-1
{2}
35 км 1/1 1500 м
[Sc]
-0.8 -1.3 96 -3 -3 по сезону 1045.6 1032.1
Ю 1-2
{2}
35 км 5/5 1300 м
[Sc]
-1.3 -1.8 96 -4 -4 по сезону 1046.1 1032.5
Ю 1-2
{2}
30 км 6/6 1020 м
[Sc]
+0.2 -0.3 96 -2 -2 тепло 1046.1 1032.6
Ю 1 25 км 8/6 1260 м
[Sc Ci fib]
+0.4 -0.6 93 -2 -2 по сезону 1046.9 1033.4 -1.6 +5.2
Ю 2-2
{3}
23 км 4/4 1110 м
[Sc]
-1.0 -1.8 94 -5 -5 по сезону 1047.5 1033.9
Ю 2-3
{3}
25 км 4/4 1200 м
[Sc]
-0.5 -2.4 87 -4 -4 тепло 1047.0 1033.5
В 1 28 км 1/1 1110 м
[Sc]
+2.4 -0.7 80 +1 +2 по сезону 1047.7 1034.3
СВ 4-6
{6}
28 км 1/1 720 м
[Cu hum]
+4.8 +0.5 74 +1 +2 тепло 1048.1 1034.8
СВ 5-6
{7}
30 км 1/1 720 м
[Cu hum]
+6.0 -1.0 61 +2 +3 тепло 1047.9 1034.7
СВ 4-7
{7}
30 км 1/1 960 м
[Cu hum]
+6.5 -1.5 57 +3 +5 по сезону 1047.4 1034.2
СВ 4-6
{6}
40 км 5/5 1080 м
[Sc diur, vesp]
+6.1 -1.4 59 +3 +3 тепло 1046.7 1033.5
В 4-5
{6}
40 км 4/4 1080 м
[Cu hum]
+6.0 -2.1 56 +3 +3 тепло 1046.9 1033.7
С 5-7
{9}
40 км 6/6 1080 м
[Sc]
+5.8 -1.4 60 +2 +2 по сезону 1046.3 1033.1
СВ 5-6
{6}
40 км 1/1 1080 м
[Sc]
+5.3 -1.2 63 +1 +1 тепло 1046.1 1032.9
СВ 5-7
{7}
40 км 3/3 1140 м
[Sc]
+4.3 -0.8 69 -0 -0 тепло 1046.2 1032.9
С 4 40 км 1/1 1140 м
[Sc]
+3.2 -1.3 72 -1 -1 по сезону 1046.3 1033.0 -1.8 +7.2
СВ 4-5
{8}
35 км 1/1 1110 м
[Sc]
+2.4 -1.4 76 -2 -2 по сезону 1046.6 1033.2
СВ 6-8
{8}
40 км 1/1 1110 м
[Sc]
+2.8 -1.6 73 -3 -3 тепло 1046.4 1033.0
СВ 3-5
{8}
30 км ясно +1.3 -1.9 79 -3 -3 по сезону 1046.4 1033.0
СВ 1-2
{5}
30 км ясно -1.0 -2.7 88 -3 -3 по сезону 1046.3 1032.8
СВ 2-2
{3}
30 км ясно -1.7 -3.4 88 -6 -6 тепло 1046.2 1032.6
СВ 2-3
{8}
28 км ясно -1.1 -2.9 88 -5 -5 по сезону 1046.0 1032.5
СВ 2-3
{4}
28 км ясно -0.9 -3.1 85 -5 -5 по сезону 1045.2 1031.7
СВ 2-3
{4}
28 км ясно +0.1 -2.4 83 -3 -3 тепло 1045.6 1032.1
В 3-3
{4}
28 км ясно -2.0 -3.6 89 -7 -7 прохладно 1044.6 1031.0
В 2-3
{3}
28 км ясно -2.3 -3.9 89 -6 -6 по сезону 1044.3 1030.7
В 3-4
{4}
28 км ясно -2.0 -3.6 89 -7 -7 по сезону 1044.2 1030.6
В 2 35 км ясно -2.5 -3.9 90 -7 -7 прохладно 1044.3 1030.7 -3.1 +3.3
В 2-3
{3}
40 км 4/0
[Ci fib]
-1.5 -3.5 86 -5 -5 по сезону 1044.2 1030.7
С 3-4
{4}
35 км 4/0
[Ci fib]
-1.9 -3.5 89 -7 -7 тепло 1044.4 1030.8
В 3 40 км 4/0
[Ci fib]
-0.1 -2.9 81 -5 -4 прохладно 1044.3 1030.8
В 4-4
{4}
40 км 4/0
[Ci fib]
+1.0 -2.0 80 -4 -3 по сезону 1044.1 1030.7
В 3-4
{5}
40 км 4/0
[Ci fib]
+2.8 -1.9 71 -1 +1 тепло 1043.5 1030.2
СВ 3-4
{5}
40 км 4/0
[Ci fib]
+4.0 -2.0 65 +1 +3 по сезону 1042.4 1029.2
В 2-3
{4}
40 км 1/0
[Ci fib]
+5.2 -2.4 58 +3 +4 тепло 1041.2 1028.0
В 2-4
{4}
40 км 3/0
[Ci fib]
+4.5 -2.5 60 +2 +4 тепло 1041.7 1028.5
В 2-3
{4}
45 км 1/0
[Ci fib]
+5.2 -2.2 59 +3 +3 по сезону 1040.9 1027.7
В 1-2
{3}
45 км 1/0
[Ci fib]
+4.6 -2.5 60 +4 +4 тепло 1040.7 1027.5
ЮВ 1-1
{3}
45 км 1/0
[Ci fib]
+1.3 -2.7 75 -0 -0 тепло 1040.5 1027.1
В 1 35 км 1/0
[Ci fib]
-0.2 -2.7 83 -2 -2 по сезону 1040.3 1026.9 -3.0 +5.4
В 1-1
{3}
30 км ясно -1.8 -3.2 90 -4 -4 по сезону 1040.0 1026.5
СВ 2-3
{3}
35 км ясно -1.1 -2.9 88 -5 -5 по сезону 1039.9 1026.4
штиль 0-1
{3}
25 км ясно -2.3 -3.2 94 -4 -4 по сезону 1040.0 1026.5
штиль 0-1
{2}
25 км ясно -3.0 -3.7 95 -4 -4 по сезону 1039.7 1026.1
Ю 1-1
{2}
25 км ясно -3.3 -4.1 94 -6 -6 по сезону 1039.5 1025.9
штиль 0-1
{3}
20 км ясно -4.1 -4.8 95 -5 -5 по сезону 1039.0 1025.4
В 2-2
{2}
20 км ясно -5.3 -6.2 93 -10 -10 прохладно 1038.2 1024.5
СВ 1-1
{1}
20 км ясно -4.4 -5.1 95 -7 -7 по сезону 1038.3 1024.7
В 2-3
{3}
20 км ясно -4.8 -5.6 94 -9 -9 холодно 1037.8 1024.2
В 1-2
{3}
18 км ясно -4.6 -5.6 93 -7 -7 по сезону 1037.4 1023.8
В 1-2
{3}
14 км ясно -4.5 -5.2 95 -7 -7 по сезону 1037.1 1023.5
СВ 1 10 км 1/1 100 м
[St]
-4.5 -5.5 93 -7 -7 прохладно 1037.5 1023.9 -5.4 -0.2
Ю 2-3
{3}
9000 м туман на расстоянии 4/4 180 м
[St]
-5.0 -6.2 91 -9 -9 по сезону 1037.5 1023.9
В 2-2
{5}
9000 м 1/1 120 м
[St]
-3.2 -4.2 93 -7 -7 тепло 1037.3 1023.8
Ю 2 600 м переохл. туман 10/10 30 м
[St]
-3.7 -4.2 96 -8 -8 холодно 1037.4 1023.8 0.0
Ю 1-2
{4}
1500 м в посл. час туман 10/10 30 м
[St]
-3.1 -3.3 99 -6 -6 по сезону 1037.9 1024.4
СВ 2-3
{5}
1500 м туман на расстоянии туман 10/10 30 м
[St]
-2.7 -3.2 96 -7 -7 по сезону 1038.4 1024.9
ЮВ 2 2700 м туман на расстоянии {снег} 10/10 60 м
[St]
-2.5 -3.3 94 -7 -7 холодно 1037.7 1024.2 0.0
Ю 2-2
{4}
1200 м в посл. час зёрна 10/10 30 м
[St]
-2.6 -3.0 97 -7 -7 прохладно 1037.0 1023.5
Ю 1-2
{4}
1400 м снежные зёрна {туман} 10/10 30 м
[St]
-2.6 -2.9 98 -5 -5 по сезону 1037.6 1024.1
С 1-2
{4}
1400 м в посл. час зёрна {туман} 10/10 60 м
[St]
-2.6 -3.2 96 -5 -5 прохладно 1036.8 1023.3 0.0
С 2-4
{4}
2500 м в посл. час зёрна 10/10 60 м
[St]
-2.0 -2.9 94 -6 -6 по сезону 1036.7 1023.2
ЮВ 1-2
{4}
3500 м дымка 10/10 90 м
[St]
-1.9 -2.8 94 -4 -4 тепло 1036.9 1023.4
ЮВ 1 4000 м дымка {снег, туман} 10/10 120 м
[St]
-1.7 -2.7 93 -4 -4 прохладно 1037.1 1023.6 -5.6 -1.6 0.0
С 3-4
{4}
3900 м снежные зёрна 10/10 120 м
[St]
-0.7 -1.8 92 -6 -6 по сезону 1037.7 1024.3
В 2-3
{3}
4000 м снежные зёрна туман 10/10 150 м
[St]
-1.3 -2.3 93 -5 -5 по сезону 1037.3 1023.9
С 3-4
{5}
4700 м слаб. морось 10/10 120 м
[St]
-0.6 -1.9 91 -6 -6 прохладно 1037.6 1024.2 0.0
ЮВ 2-2
{3}
4600 м слаб. морось туман 10/10 240 м
[St]
-0.5 -1.7 92 -4 -4 по сезону 1037.8 1024.4
Ю 1-1
{2}
4500 м слаб. морось туман 10/10 240 м
[St]
-0.6 -1.5 94 -3 -3 тепло 1037.8 1024.4
В 1 4400 м слаб. морось 10/10 240 м
[St]
-0.5 -1.6 92 -3 -3 по сезону 1037.9 1024.5 0.0
В 1-1
{1}
4500 м слаб. морось туман 10/10 210 м
[St]
-0.4 -1.2 94 -3 -3 по сезону 1037.2 1023.8
СВ 1-1
{2}
4300 м в посл. час морось туман 10/10 240 м
[St]
-0.4 -1.5 92 -3 -3 тепло 1037.7 1024.3
СВ 1-2
{2}
3700 м слаб. переохл. морось (гололёд) 10/10 120 м
[St]
-0.3 -1.4 92 -2 -2 по сезону 1036.5 1023.1 0.0
С 3-3
{3}
4400 м слаб. переохл. морось (гололёд) туман 10/10 120 м
[St]
-0.1 -1.1 93 -5 -5 по сезону 1035.8 1022.4
СВ 2-3
{4}
5000 м слаб. морось туман 10/10 180 м
[St]
+0.4 -0.6 93 -3 -3 тепло 1035.3 1022.0
СВ 3 6000 м в посл. час морось 10/10 360 м
[St]
+0.9 -0.4 91 -4 -4 по сезону 1035.0 1021.7 -1.7 +0.9 0.0
СВ 3-4
{5}
6000 м дымка 10/10 240 м
[St]
+1.5 -0.4 87 -3 -3 по сезону 1035.0 1021.7
СВ 3-3
{5}
8000 м 10/10 360 м
[St]
+1.2 -0.5 88 -3 -3 тепло 1034.9 1021.6
В 4 10 км 10/10 270 м
[Sc]
+1.7 -0.4 86 -3 -3 по сезону 1034.6 1021.3
В 5-6
{7}
16 км 10/10 330 м
[Sc]
+2.2 -1.0 79 -3 -3 по сезону 1034.1 1020.9
СВ 4-6
{6}
17 км 9/9 540 м
[Sc]
+3.3 -0.9 74 -1 -1 тепло 1033.5 1020.3
СВ 3-4
{8}
20 км 9/9 630 м
[Sc]
+3.5 -0.8 73 -0 0 по сезону 1032.6 1019.5
С 3-4
{6}
25 км 4/4 600 м
[Cu Sc]
+3.6 -0.9 72 0 +1 по сезону 1030.8 1017.7
СВ 2-4
{6}
20 км 8/8 660 м
[Sc]
+3.7 -1.0 71 +1 +2 тепло 1031.7 1018.6
В 3-5
{6}
25 км 3/3 700 м
[Sc]
+4.1 -1.1 69 +1 +1 по сезону 1030.2 1017.1
В 4-5
{6}
25 км 1/1 700 м
[Sc]
+2.7 -1.1 76 -2 -2 по сезону 1029.5 1016.4
В 3-3
{6}
20 км 3/3 480 м
[Sc]
+0.6 -2.0 83 -4 -4 тепло 1029.3 1016.1
В 4 15 км 6/6 450 м
[Sc]
+1.5 -1.3 82 -4 -4 прохладно 1029.2 1016.0 0.0 +4.3
ЮВ 3-5
{5}
12 км 10/10 360 м
[Sc]
+1.1 -1.7 82 -3 -3 по сезону 1029.0 1015.8
ЮВ 3-4
{5}
15 км 10/10 420 м
[Sc]
+1.5 -1.5 80 -3 -3 тепло 1029.3 1016.1
ЮВ 2-4
{6}
10 км 10/10 330 м
[Sc]
+1.0 -1.6 83 -2 -2 по сезону 1028.8 1015.6
ЮВ 2-3
{4}
10 км 10/10 360 м
[Sc]
+0.9 -1.5 84 -3 -3 по сезону 1028.8 1015.6
ЮЗ 1-1
{3}
10 км 10/10 400 м
[Sc]
+0.9 -1.7 83 -1 -1 тепло 1028.4 1015.2
Ю 2-3
{6}
10 км 10/10 360 м
[Sc]
+0.7 -1.8 83 -3 -3 по сезону 1028.3 1015.1
Ю 1-2
{4}
10 км 10/10 270 м
[Sc]
+0.4 -1.8 85 -2 -2 по сезону 1027.4 1014.2
ЮЗ 3-3
{4}
10 км 10/10 300 м
[Sc]
+0.4 -2.0 84 -4 -4 тепло 1027.9 1014.7
ЮЗ 2-3
{4}
10 км 10/10 300 м
[Sc]
+0.4 -1.8 85 -3 -3 по сезону 1026.8 1013.6
ЮЗ 1-2
{3}
8000 м 10/10 240 м
[St]
+0.5 -1.5 86 -1 -1 тепло 1026.6 1013.4
Ю 1-2
{3}
8000 м 10/10 240 м
[St]
+0.6 -1.4 86 -1 -1 тепло 1026.3 1013.1
Ю 2 8000 м 10/10 200 м
[St]
+0.4 -1.8 85 -3 -3 по сезону 1026.3 1013.1 +0.3 +1.6
Ю 3-4
{5}
9000 м 10/10 180 м
[St]
+0.3 -2.3 83 -4 -4 по сезону 1026.5 1013.3
Ю 2-5
{5}
8000 м 10/10 180 м
[St]
+0.3 -2.4 82 -3 -3 тепло 1026.5 1013.3
Ю 3 9000 м 10/10 210 м
[St]
+0.4 -2.1 83 -4 -4 по сезону 1026.7 1013.5
Ю 2-3
{5}
8000 м 10/10 210 м
[St]
+0.4 -2.2 83 -3 -3 по сезону 1026.5 1013.3
Ю 3-4
{5}
8000 м 10/10 210 м
[St]
+0.6 -2.0 83 -4 -4 тепло 1026.3 1013.1
Ю 2 8000 м 10/10 240 м
[St]
+0.6 -2.2 81 -3 -3 прохладно 1025.8 1012.6
ЮЗ 2-3
{4}
8000 м 10/10 270 м
[St]
+0.9 -1.4 85 -3 -3 по сезону 1024.6 1011.4
Ю 2-3
{3}
9000 м 10/10 300 м
[St]
+0.9 -1.8 82 -3 -3 тепло 1025.2 1012.0
Ю 2-3
{4}
7000 м дымка 10/10 240 м
[St]
+0.7 -1.3 86 -3 -3 по сезону 1024.6 1011.4
ЮВ 2-2
{3}
5000 м дымка 10/10 210 м
[St]
+0.5 -1.2 88 -3 -3 по сезону 1024.5 1011.3
СЗ 1-1
{3}
6000 м дымка 10/10 180 м
[St]
+0.5 -1.1 89 -2 -2 тепло 1024.7 1011.5
Ю 2 6000 м дымка 10/10 180 м
[St]
+0.5 -1.2 88 -3 -3 по сезону 1024.6 1011.4 +0.2 +1.1
Ю 1-2
{2}
6000 м дымка 10/10 180 м
[St]
+0.3 -1.1 90 -2 -2 по сезону 1024.8 1011.6
З 1-5
{5}
6000 м дымка 10/10 180 м
[St]
+0.4 -1.2 89 -2 -2 тепло 1024.8 1011.6
Ю 1-2
{5}
6000 м дымка 10/10 150 м
[St]
+0.3 -0.9 92 -2 -2 по сезону 1024.9 1011.7
ЮВ 1-2
{2}
6000 м дымка 10/10 150 м
[St]
+0.3 -0.8 92 -2 -2 по сезону 1024.6 1011.4
Ю 1-2
{2}
5000 м дымка 10/10 120 м
[St]
+0.3 -0.7 93 -2 -2 тепло 1024.3 1011.1
Ю 1-2
{5}
4500 м дымка 10/10 90 м
[St]
+0.1 -0.5 96 -2 -2 по сезону 1024.2 1011.0
ЮЗ 2-2
{3}
2500 м дымка 10/10 30 м
[St]
+0.1 -0.4 96 -4 -4 по сезону 1023.9 1010.7
ЮЗ 1-2
{3}
3500 м дымка 10/10 90 м
[St]
+0.2 -0.4 96 -2 -2 тепло 1024.0 1010.8
ЮЗ 2-3
{3}
1200 м дымка 10/10 30 м
[St]
0.0 -0.3 98 -4 -4 по сезону 1023.7 1010.5
З 2-3
{3}
3500 м дымка 10/10 60 м
[St]
+0.1 -0.7 94 -4 -4 по сезону 1023.6 1010.4
ЮЗ 1-3
{3}
5000 м дымка 10/10 60 м
[St]
+0.1 -0.9 93 -2 -2 тепло 1023.4 1010.2
ЮЗ 1 4500 м дымка 10/10 50 м
[St]
+0.2 -0.6 94 -2 -2 по сезону 1023.7 1010.5 0.0 +0.5
Ю 2 400 м туман 10/10 30 м
[St]
+0.2 0.0 99 -4 -4 по сезону 1024.5 1011.3
З 1-3
{4}
3000 м слаб. морось {туман} туман 10/10 60 м
[St]
+0.6 +0.1 96 -2 -2 по сезону 1024.7 1011.5
Ю 1-2
{4}
700 м туман 10/10 30 м
[St]
+0.3 +0.1 99 -2 -2 тепло 1024.8 1011.6
ЮВ 1 3500 м в посл. час морось {туман} 10/10 60 м
[St]
+0.9 +0.3 96 -1 -1 по сезону 1024.3 1011.1 0.0
В 1-1
{2}
3500 м дымка 10/10 60 м
[St]
+1.1 +0.4 95 -1 -1 по сезону 1023.8 1010.7
ЮВ 1-1
{3}
6000 м дымка 10/10 120 м
[St]
+1.4 +0.5 94 -1 -1 тепло 1023.3 1010.2
ЮВ 1-2
{3}
6000 м дымка 10/10 120 м
[St]
+1.5 +0.5 93 -0 -0 по сезону 1023.0 1009.9
ЮЗ 1-2
{2}
6000 м дымка 10/10 60 м
[St]
+1.3 +0.6 95 -1 -1 по сезону 1022.8 1009.7
З 1-1
{2}
6000 м дымка 10/10 120 м
[St]
+1.3 +0.6 95 -1 -1 тепло 1022.6 1009.5
З 1 5000 м дымка 10/10 60 м
[St]
+1.2 +0.5 95 -1 -1 по сезону 1022.9 1009.8 0.0 +1.6
З 1-2
{2}
3500 м дымка 10/10 30 м
[St]
+1.2 +0.8 97 -1 -1 по сезону 1023.0 1009.9
СЗ 1-2
{2}
2500 м дымка 10/10 60 м
[St]
+1.2 +0.7 96 -1 -1 тепло 1023.0 1009.9
ЮВ 1-1
{2}
4000 м дымка 10/10 30 м
[St]
+1.3 +0.8 96 -1 -1 по сезону 1022.7 1009.6
В 1-2
{2}
1200 м дымка 10/10 30 м
[St]
+1.1 +0.8 98 -1 -1 по сезону 1022.4 1009.3
В 2-3
{3}
2500 м дымка 10/10 30 м
[St]
+1.3 +1.1 99 -2 -2 тепло 1022.5 1009.4
С 1-1
{3}
700 м туман ?/? +1.2 +1.2 100 -1 -1 по сезону 1022.1 1009.0
В 1-2
{3}
800 м туман ?/? +1.1 +0.7 97 -1 -1 тепло 1021.9 1008.8
В 1-2
{2}
800 м туман ?/? +1.1 +0.8 98 -1 -1 тепло 1021.8 1008.7
штиль 0-1
{3}
700 м туман ?/? +1.0 +0.7 98 -0 -0 по сезону 1021.3 1008.2
В 1-2
{3}
300 м туман ?/? +0.9 +0.9 100 -1 -1 тепло 1020.9 1007.8
В 2-3
{3}
200 м туман ?/? +1.0 +0.7 98 -3 -3 тепло 1020.9 1007.8
ЮВ 2 300 м туман ?/? +0.5 +0.4 99 -3 -3 по сезону 1020.9 1007.8 +0.5 +1.3
ЮВ 2-4
{4}
300 м туман ?/? +0.3 +0.3 100 -4 -4 по сезону 1021.0 1007.9
ЮВ 2-4
{4}
300 м туман ?/? +0.3 +0.3 100 -4 -4 тепло 1021.1 1008.0
Ю 1 500 м туман 10/10 30 м
[St]
+0.5 +0.5 100 -2 -2 по сезону 1021.3 1008.2
Ю 1-2
{3}
5000 м дымка 10/10 90 м
[St]
+1.2 +0.8 97 -1 -1 по сезону 1021.1 1008.0
Ю 1-2
{3}
3000 м в посл. час туман туман 10/10 90 м
[St]
+0.8 +0.5 98 -1 -1 тепло 1021.3 1008.2
Ю 2 7000 м дымка {туман} 10/10 60 м
[St]
+1.7 +1.1 96 -2 -2 по сезону 1020.5 1007.4
Ю 2-3
{3}
3000 м дымка 10/10 60 м
[St]
+1.7 +1.2 96 -2 -2 по сезону 1020.1 1007.0
Ю 2-2
{4}
800 м туман 10/10 30 м
[St]
+1.9 +1.5 97 -2 -2 тепло 1019.5 1006.5
ЮЗ 1-3
{4}
600 м туман 10/10 30 м
[St]
+2.1 +2.0 99 0 0 по сезону 1019.4 1006.4
ЮЗ 2-3
{3}
300 м туман ?/? +2.1 +2.0 99 -1 -1 по сезону 1019.2 1006.2
Ю 1-3
{3}
800 м туман 10/10 30 м
[St]
+2.2 +1.9 98 0 0 тепло 1019.1 1006.1
Ю 2 300 м туман ?/? +2.1 +2.0 99 -1 -1 по сезону 1019.1 1006.1 +0.2 +2.2
Местоположение метеостанции Франкфурт-на-Майне (Германия): широта 50.05 долгота 8.60 высота над уровнем моря 112 м.
В архиве по умолчанию представлена погода во Франкфурте-на-Майне за последнюю неделю. Архивные данные за месяц целиком и за предыдущие месяцы, начиная с января 2011 года, Вы можете получить, выбрав интересующий диапазон дат из раскрывающегося списка и нажав кнопку "Найти!".
*Определитесь, кто Вы:
Внимание! Время в таблицах - всемирное. Для получения местного времени необходимо прибавить поправку, которая равна 1 ч.
Смотрите также архив погоды в соседних городах и на ближайших метеорологических станциях:
Партнеры нашего сайта:      
Пояснения к столбцам:
  • Ветер - указаны скорость ветра в м/с - средняя за 10 мин, порывы в срок и между сроками (в фигурных скобках) и направление, откуда дует ветер: С - северный,
  • СВ - северо-восточный, В - восточный, ЮВ - юго-восточный, Ю - южный, ЮЗ - юго-западный, З - западный, СЗ - северо-западный.
  • Видимость - горизонтальная дальность видимости в метрах или километрах. При видимости от 1 до 10 км при отсутствии осадков обычно наблюдается дымка, при ухудшении видимости до 1 км и менее - туман. В сухую погоду видимость может ухудшаться дымом, пылью или мглою.
  • Явления - указаны атмосферные явления, наблюдавшиеся в срок или в последний час перед сроком; фигурными скобками обозначены явления, наблюдавшиеся между сроками (за 1-3 часа до срока); квадратными скобками обозначены град или гололедные отложения с указанием их диаметра в мм.
  • Облачность - указаны через наклонную черту общая и нижняя облачность в баллах и высота нижней границы облаков в метрах; квадратными скобками обозначены формы облаков: Ci - перистые, Cs - перисто-слоистые, Cc - перисто-кучевые, Ac - высококучевые, As - высокослоистые, Sc - слоисто-кучевые, Ns - слоисто-дождевые, Cu - кучевые, Cb - кучево-дождевые. Подробнее классификацию облаков см. в Атласе облаков (PDF).
  • T - Температура воздуха - температура, измеренная на высоте 2 м над землей.
  • Td - Температура точки росы - температура, при понижении до которой содержащийся в воздухе водяной пар достигнет насыщения.
  • f - Относительная влажность воздуха - влажноcть воздуха, измеренная на высоте 2 м над землей.
  • Te - Эффективная температура - температура, которую ощущает одетый по сезону человек в тени. Характеристика душности погоды. При расчете учитывается влияние влажности воздуха и скорости ветра на теплоощущения человека.
  • Tes - Эффективная температура на солнце - температура, которую ощущает человек, с поправкой на солнечный нагрев. Характеристика знойности погоды. Зависит от высоты солнца над горизонтом, облачности и скорости ветра. Ночью, в пасмурную погоду, а также при ветре 12 м/с и более поправка равна нулю.
  • P - Атмосферное давление - приведенное к уровню моря атмосферное давление.
  • Po - Атмосферное давление - измеренное на уровне метеостанции атмосферное давление.
  • Tmin - Минимальная температура - минимум температуры воздуха на высоте 2 м над землей.
  • Tmax - Максимальная температура - максимум температуры воздуха на высоте 2 м над землей.
  • R - Количество осадков - Количество выпавших осадков за период времени, мм. При наведении курсора мыши на число - период времени, за который выпало указанное количество осадков.
  • R24 - Количество осадков - Количество выпавших осадков за 24 часа, мм.
  • S - Снежный покров - Высота снежного покрова, см. При наведении курсора мыши на число - состояние снежного покрова и степень покрытия местности в баллах.